Tracking 20945 objects as of 8-Jul-2020
HD Live streaming from Space Station
objects crossing your sky now

SL-3 R/B

Track SL-3 R/B now!
10-day predictions
SL-3 R/B is classified as:


NORAD ID: 12904
Int'l Code: 1981-103B
Perigee: 536.6 km
Apogee: 575.7 km
Inclination: 81.2 °
Period: 95.6 minutes
Semi major axis: 6927 km
RCS: 5.653 m2 (large)
Launch date: October 13, 1981
Source: Commonwealth of Independent States (former USSR) (CIS)
Launch site: PLESETSK MISSILE AND SPACE COMPLEX (PKMTR)

Note: This is a ROCKET BODY
aabbcc
Your satellite tracking list
Your tracking list is empty




NASA's NSSDC Master Catalog

Two Line Element Set (TLE):
1 12904U 81103B   20190.63577089 +.00000773 +00000-0 +51280-4 0  9993
2 12904 081.1772 078.7724 0028274 349.0094 011.0507 15.05811143660747
Source of the keplerian elements: AFSPC